Date String (YYYY-MM-DD hh:mm:ss) UTC,Instrument flags,absolute air pressure of the measurement (hPa),sample flow rate (lpm),inlet stack bypass flow (lpm),air temperature of the measurement (°C),ambient temperature measured by the external sensor (°C),aerosol sample conditioner tube jacket temperature (°C),OPC LED temperature (°C),internal box temperature (°C),relative humidity of the measurement (%),span deviation,mass concentration of particles derived from Lorenz-Mie calculation of OPC scattering (μg/m³),mass concentration of particles derived from Lorenz-Mie calculation of OPC scattering (μg/m³),mass concentration of particles derived from Lorenz-Mie calculation of OPC scattering (μg/m³)
DateTimeUTC,F1_M11,P_M11,Q1_M11,Q2_M11,T1_M11,T2_M11,T3_M11,T4_M11,T5_M11,U1_M11,ZSPAN_M11,X2_M11,X0_M11,X1_M11
2023-09-30 06:00:00,SystemResetWarning,0828.6,5.00,000.00,028.5,027.3,000.0,036.9,030.3,20.3,0000.0,0005.58,0018.97,0004.15
2023-09-30 06:01:00,SystemResetWarning,0828.6,4.99,000.00,028.5,027.4,000.0,036.9,030.3,20.1,0000.0,0005.60,0018.05,0004.14
2023-09-30 06:02:00,SystemResetWarning,0828.6,5.00,000.00,028.5,027.4,000.0,036.9,030.4,19.8,0000.0,0005.67,0017.86,0004.15
2023-09-30 06:03:00,SystemResetWarning,0828.5,5.00,000.00,028.6,027.4,000.0,036.9,030.4,19.3,0000.0,0005.77,0017.75,0004.16
2023-09-30 06:04:00,SystemResetWarning,0828.5,5.00,000.00,028.6,027.5,000.0,037.0,030.4,19.2,0000.0,0005.83,0017.23,0004.16
2023-09-30 06:05:00,SystemResetWarning,0828.5,5.00,000.00,028.6,027.5,000.0,037.0,030.4,19.0,0000.0,0005.89,0016.99,0004.17
2023-09-30 06:06:00,SystemResetWarning,0828.6,4.99,000.00,028.6,027.5,000.0,037.0,030.4,19.1,0000.0,0005.89,0017.14,0004.19
2023-09-30 06:07:00,SystemResetWarning,0828.6,4.99,000.00,028.7,027.2,000.0,037.0,030.5,19.1,0000.0,0005.94,0016.79,0004.20
2023-09-30 06:08:00,SystemResetWarning,0828.5,5.01,000.00,028.6,025.3,000.0,037.0,030.3,19.2,0000.0,0006.02,0017.52,0004.23
2023-09-30 06:09:00,SystemResetWarning,0828.5,5.02,000.00,028.6,024.4,000.0,036.9,030.1,19.2,0000.0,0006.12,0018.25,0004.27
2023-09-30 06:10:00,SystemResetWarning,0828.4,4.99,000.00,028.4,024.4,000.0,036.9,029.9,19.6,0000.0,0006.17,0018.72,0004.28
2023-09-30 06:11:00,SystemResetWarning,0828.5,5.00,000.00,028.3,024.8,000.0,036.9,029.8,19.8,0000.0,0006.20,0019.20,0004.29
2023-09-30 06:12:00,SystemResetWarning,0828.5,5.01,000.00,028.3,025.1,000.0,036.9,029.8,19.8,0000.0,0006.26,0020.05,0004.30
2023-09-30 06:13:00,SystemResetWarning,0828.5,5.00,000.00,028.3,025.5,000.0,036.9,029.8,20.0,0000.0,0006.22,0020.25,0004.30
2023-09-30 06:14:00,SystemResetWarning,0828.5,5.00,000.00,028.2,025.8,000.0,036.8,029.9,20.1,0000.0,0006.22,0020.37,0004.32
2023-09-30 06:15:00,SystemResetWarning,0828.4,5.00,000.00,028.2,026.1,000.0,036.8,029.9,20.3,0000.0,0006.23,0020.58,0004.33
2023-09-30 06:16:00,SystemResetWarning,0828.4,5.01,000.00,028.2,026.3,000.0,036.8,029.9,20.3,0000.0,0006.21,0021.74,0004.34
2023-09-30 06:17:00,SystemResetWarning,0828.5,4.99,000.00,028.3,026.5,000.0,036.8,030.0,20.2,0000.0,0006.22,0022.48,0004.35
2023-09-30 06:18:00,SystemResetWarning,0828.6,4.99,000.00,028.3,026.6,000.0,036.8,030.0,20.2,0000.0,0006.14,0021.89,0004.35
2023-09-30 06:19:00,SystemResetWarning,0828.5,4.99,000.00,028.3,026.8,000.0,036.8,030.0,20.2,0000.0,0006.13,0021.71,0004.36
2023-09-30 06:20:00,SystemResetWarning,0828.6,5.00,000.00,028.3,026.9,000.0,036.8,030.1,20.2,0000.0,0006.25,0025.91,0004.37
2023-09-30 06:21:00,SystemResetWarning,0828.5,5.00,000.00,028.3,027.0,000.0,036.8,030.1,20.2,0000.0,0006.24,0025.98,0004.37
2023-09-30 06:22:00,SystemResetWarning,0828.5,5.00,000.00,028.4,027.1,000.0,036.8,030.2,20.2,0000.0,0006.31,0025.37,0004.37
2023-09-30 06:23:00,SystemResetWarning,0828.5,5.01,000.00,028.4,027.1,000.0,036.8,030.2,20.2,0000.0,0006.28,0024.99,0004.38
2023-09-30 06:24:00,SystemResetWarning,0828.6,5.00,000.00,028.4,027.2,000.0,036.9,030.2,20.2,0000.0,0006.34,0026.39,0004.39
2023-09-30 06:25:00,SystemResetWarning,0828.5,5.00,000.00,028.5,027.2,000.0,036.9,030.2,20.1,0000.0,0006.36,0028.18,0004.40
2023-09-30 06:26:00,SystemResetWarning,0828.4,5.00,000.00,028.5,027.3,000.0,036.9,030.3,20.1,0000.0,0006.38,0028.10,0004.40
2023-09-30 06:27:00,SystemResetWarning,0828.4,5.00,000.00,028.5,027.3,000.0,036.9,030.3,20.0,0000.0,0006.39,0027.34,0004.40
2023-09-30 06:28:00,SystemResetWarning,0828.4,4.99,000.00,028.5,027.4,000.0,036.9,030.3,19.7,0000.0,0006.43,0026.17,0004.39
2023-09-30 06:29:00,SystemResetWarning,0828.5,4.99,000.00,028.6,027.4,000.0,036.9,030.4,19.6,0000.0,0006.50,0027.12,0004.39
2023-09-30 06:30:00,SystemResetWarning,0828.6,5.00,000.00,028.6,027.4,000.0,036.9,030.4,19.6,0000.0,0006.50,0026.88,0004.40
2023-09-30 06:31:00,SystemResetWarning,0828.6,5.01,000.00,028.6,027.5,000.0,037.0,030.4,19.4,0000.0,0006.40,0023.47,0004.38
2023-09-30 06:32:00,SystemResetWarning,0828.5,5.00,000.00,028.6,027.5,000.0,037.0,030.4,19.2,0000.0,0006.38,0021.75,0004.37
2023-09-30 06:33:00,SystemResetWarning,0828.5,5.00,000.00,028.7,027.5,000.0,037.0,030.4,19.2,0000.0,0006.37,0021.41,0004.36
2023-09-30 06:34:00,SystemResetWarning,0828.5,4.99,000.00,028.7,027.5,000.0,037.0,030.5,19.3,0000.0,0006.36,0020.56,0004.37
2023-09-30 06:35:00,SystemResetWarning,0828.5,4.99,000.00,028.7,027.4,000.0,037.0,030.5,19.2,0000.0,0006.35,0019.82,0004.36
2023-09-30 06:36:00,SystemResetWarning,0828.4,5.00,000.00,028.7,025.9,000.0,037.0,030.4,19.1,0000.0,0006.34,0018.94,0004.36
2023-09-30 06:37:00,SystemResetWarning,0828.4,5.00,000.00,028.6,024.5,000.0,036.9,030.2,19.0,0000.0,0006.30,0018.56,0004.36
2023-09-30 06:38:00,SystemResetWarning,0828.4,5.00,000.00,028.5,024.4,000.0,036.9,030.0,18.9,0000.0,0006.29,0018.96,0004.36
2023-09-30 06:39:00,SystemResetWarning,0828.4,5.01,000.00,028.4,024.6,000.0,036.9,029.8,19.1,0000.0,0006.31,0019.99,0004.36
2023-09-30 06:40:00,SystemResetWarning,0828.4,5.00,000.00,028.3,025.0,000.0,036.9,029.8,19.2,0000.0,0006.26,0019.85,0004.35
2023-09-30 06:41:00,SystemResetWarning,0828.4,4.99,000.00,028.3,025.4,000.0,036.9,029.8,19.3,0000.0,0006.25,0020.38,0004.34
2023-09-30 06:42:00,SystemResetWarning,0828.4,5.00,000.00,028.3,025.7,000.0,036.9,029.9,19.4,0000.0,0006.20,0020.28,0004.33
2023-09-30 06:43:00,SystemResetWarning,0828.4,5.00,000.00,028.3,026.0,000.0,036.9,029.9,19.4,0000.0,0006.24,0021.26,0004.34
2023-09-30 06:44:00,SystemResetWarning,0828.4,5.00,000.00,028.3,026.2,000.0,036.9,030.0,19.5,0000.0,0006.22,0021.94,0004.33
2023-09-30 06:45:00,SystemResetWarning,0828.4,5.00,000.00,028.3,026.4,000.0,036.8,030.0,19.6,0000.0,0006.22,0022.66,0004.31
2023-09-30 06:46:00,SystemResetWarning,0828.4,4.99,000.00,028.3,026.6,000.0,036.8,030.0,19.9,0000.0,0006.17,0022.46,0004.30
2023-09-30 06:47:00,SystemResetWarning,0828.4,5.00,000.00,028.3,026.8,000.0,036.8,030.1,19.9,0000.0,0006.07,0021.29,0004.29
2023-09-30 06:48:00,SystemResetWarning,0828.4,5.00,000.00,028.3,026.9,000.0,036.8,030.1,20.0,0000.0,0006.05,0022.11,0004.28
2023-09-30 06:49:00,SystemResetWarning,0828.4,5.00,000.00,028.4,027.0,000.0,036.8,030.1,20.1,0000.0,0006.02,0023.00,0004.26
2023-09-30 06:50:00,SystemResetWarning,0828.4,5.00,000.00,028.4,027.1,000.0,036.9,030.2,20.1,0000.0,0006.01,0023.24,0004.26
2023-09-30 06:51:00,SystemResetWarning,0828.4,5.01,000.00,028.4,027.1,000.0,036.9,030.2,20.2,0000.0,0006.00,0023.01,0004.26
2023-09-30 06:52:00,SystemResetWarning,0828.4,5.00,000.00,028.4,027.2,000.0,036.9,030.2,20.2,0000.0,0006.01,0022.52,0004.26
2023-09-30 06:53:00,SystemResetWarning,0828.4,5.01,000.00,028.5,027.2,000.0,036.9,030.2,20.2,0000.0,0006.06,0022.90,0004.27
2023-09-30 06:54:00,SystemResetWarning,0828.4,4.99,000.00,028.5,027.3,000.0,036.9,030.3,20.2,0000.0,0006.05,0022.94,0004.27
2023-09-30 06:55:00,SystemResetWarning,0828.3,4.99,000.00,028.5,027.3,000.0,036.9,030.3,20.0,0000.0,0006.08,0022.33,0004.28
2023-09-30 06:56:00,SystemResetWarning,0828.3,5.01,000.00,028.5,027.3,000.0,036.9,030.3,20.1,0000.0,0006.06,0021.43,0004.29
2023-09-30 06:57:00,SystemResetWarning,0828.3,5.01,000.00,028.6,027.4,000.0,037.0,030.3,20.2,0000.0,0006.12,0021.71,0004.29
2023-09-30 06:58:00,SystemResetWarning,0828.3,5.00,000.00,028.6,027.4,000.0,037.0,030.4,20.1,0000.0,0006.28,0022.65,0004.31
2023-09-30 06:59:00,SystemResetWarning,0828.3,4.99,000.00,028.6,027.4,000.0,037.0,030.4,20.0,0000.0,0006.33,0022.81,0004.32
